Back to catalog

STARLINK-34041

AliveCommunicationsVLEO
NORAD 63844·PAYLOAD·🇺🇸 United States

Launched May 7, 2025 from Cape Canaveral Space Force Station

Loading…

Next Passes (next 24 hours)

TLE

FreshSource: CelesTrak SupGP

Epoch: Sep 14, 2026, 21:03 UTC

1 63844C 25093J   26257.87756944 -.00007873  00000+0 -28524-3 0  2573
2 63844  43.0002  89.7657 0001477 271.8077  49.1198 15.27572225    10

Track STARLINK-34041 in real time with AllMySat

Download on the App Store